Location: Santa Maria di Sala
(45.5070°N, 12.0300°E)
Time: 07:47:06
(UTC+02:00)

Transit 2A - Visible Passes

Search period start: 27 May 2022 00:00
Search period end: 06 June 2022 00:00
Orbit: 598 x 959 km, 66.7° (Epoch: 26 May)

Date Brightness Start Highest point End Pass type
(mag) Time Alt. Az. Time Alt. Az. Time Alt. Az.
03 Jun 8.2 04:21:48 10° SSE 04:26:16 23° ESE 04:30:27 10° ENE visible
04 Jun 8.5 03:48:48 10° SE 03:52:08 16° ESE 03:55:20 10° ENE visible
05 Jun 8.8 03:17:19 10° ESE 03:18:04 10° ESE 03:18:48 10° E visible
